Flag for Austria Weather past 2 weeks in Ternitz, Lower Austria, Austria

Now
57 °F

Overcast.


Feels Like: 57 °F
Forecast: 53 / 64 °F
Wind: 1 mph from North

Location: Eisenstadt

Current Time: Oct 1, 2014 at 7:08:40 AM

Latest Report: Oct 1, 2014 at 6:00 AM


Visibility: 5 mi

Pressure: 30.25 "Hg

Humidity: 94%

Dew point: 56 °F

Location of TernitzLocation

Historic Weather in Ternitz — Graph

°F

Ternitz temperature yesterday

Maximum temperature yesterday: 62 °F (at 4:00 PM)
Minimum temperature yesterday: 53 °F (at 3:00 AM)
Average temperature yesterday: 57 °F

Past Weeks' High & Low Weather Summary

 TemperatureHumidityPressure
High77 °F (Sep 21, 2:00 PM)98% (Sep 17, 7:00 AM)30.39 "Hg (Sep 17, 7:00 AM)
Low42 °F (Sep 24, 7:00 AM)49% (Sep 21, 2:00 PM)29.79 "Hg (Sep 22, 3:00 AM)
Average59 °F80%30.09 "Hg
* Reported Sep 16 5:00 AM — Oct 1 5:00 AM, Ternitz, Weather by CustomWeather, © 2014

Note: Actual official high and low records may vary slightly from our data, if they occured in-between our weather recording intervals... More about our weather records

Advertising

Ternitz weather history for previous 24 hours

 ConditionsComfort  
Time TempWeatherWind HumidityBarometerVisibility
5:00 AM
Oct 1
57 °FOvercast.No wind96%30.25 "Hg6 mi
4:00 AM56 °FCool.No wind97%30.25 "HgN/A
3:00 AM56 °FCool.No wind97%30.25 "HgN/A
2:00 AM56 °FFog.1 mph97%30.25 "Hg1 mi
1:00 AM57 °FCool.2 mph95%30.25 "HgN/A
12:00 AM57 °FCool.1 mph96%30.25 "HgN/A
11:00 PM
Sep 30
57 °FPassing clouds.1 mph95%30.26 "Hg5 mi
10:00 PM58 °FCool.1 mph94%30.26 "HgN/A
9:00 PM58 °FCool.1 mph94%30.26 "HgN/A
8:00 PM59 °FPassing clouds.2 mph93%30.26 "Hg6 mi
7:00 PM60 °FPassing clouds.2 mph91%30.26 "Hg6 mi
6:00 PM62 °FCool.2 mph84%30.26 "HgN/A
5:00 PM62 °FPassing clouds.2 mph83%30.25 "Hg9 mi
4:00 PM62 °FMild.1 mph82%30.26 "HgN/A
3:00 PM62 °FCool.1 mph83%30.27 "HgN/A
2:00 PM61 °FOvercast.2 mph84%30.29 "Hg6 mi
1:00 PM59 °FCool.1 mph87%30.29 "HgN/A
12:00 PM58 °FCool.1 mph89%30.30 "HgN/A
11:00 AM58 °FCool.1 mph89%30.30 "HgN/A
10:00 AM56 °FCool.3 mph93%30.31 "HgN/A
9:00 AM54 °FCool.3 mph95%30.30 "HgN/A
8:00 AM54 °FFog.3 mph95%30.30 "Hg2 mi
7:00 AM54 °FFog.2 mph95%30.28 "Hg2 mi
Weather by CustomWeather, © 2014

See weather overviewHow to use our weather pages